Regional Weather Roundup
Issued by NWS

Home | Current Version | Previous Version | Text Only | Print | Product List | Glossary On
Versions: 1 2 3 4 5 6 7 8 9 10 11 12 13 14 15 16 17 18 19 20 21 22 23 24 25 26 27 28 29 30 31 32 33 34 35 36 37 38 39 40 41 42 43 44 45 46 47 48 49 50
000
ASUS43 KOAX 190710
RWRNE

WEATHER ROUNDUP FOR NEBRASKA
NATIONAL WEATHER SERVICE OMAHA NE
100 AM CST FRI JAN 19 2018

NOTES: SATELLITE DATA IS BEING USED TO AUGMENT CLOUD COVER ABOVE
       12000 FEET.
       "FAIR" INDICATES FEW OR NO CLOUDS BELOW 12,000 FEET WITH NO
       SIGNIFICANT WEATHER AND/OR OBSTRUCTIONS TO VISIBILITY.


NEZ001>004-019>022-054>056-190800-
NEBRASKA PANHANDLE

CITY           SKY/WX    TMP DP  RH WIND       PRES   REMARKS
SCOTTSBLUFF    MOCLDY    35  29  78 E3        29.82F
ALLIANCE       MOCLDY    33  29  85 SW5       29.79F WCI  29
CHADRON        CLOUDY    33  29  85 W6        29.75F WCI  28
GORDON         FAIR      39  30  69 SW8       29.75F WCI  34
KIMBALL        MOCLDY    36  19  49 SW7       29.87S WCI  30
SIDNEY         MOCLDY    34  20  56 W10       29.85F WCI  26
$$

NEZ057>060-069>072-079>082-190800-
SOUTHWEST NEBRASKA

CITY           SKY/WX    TMP DP  RH WIND       PRES   REMARKS
NORTH PLATTE   CLOUDY    26  22  84 W3        29.82F
IMPERIAL       CLOUDY    33  24  69 W7        29.84F WCI  27
LEXINGTON      CLOUDY    30  26  85 CALM      29.82F
MCCOOK         CLOUDY    30  23  75 W6        29.85F WCI  24
OGALLALA       MOCLDY    30  25  81 W5        29.83F WCI  26
$$

NEZ005>010-023>029-035>040-094-190800-
NORTH CENTRAL NEBRASKA

CITY           SKY/WX    TMP DP  RH WIND       PRES   REMARKS
VALENTINE      MOCLDY    41  30  65 SW9       29.71F
AINSWORTH      CLOUDY    40  32  74 SW10      29.73F WCI  33
BROKEN BOW     CLOUDY    35  25  66 CALM      29.79F
O`NEILL        CLOUDY    37  32  81 SW9       29.74F WCI  31
ORD            CLOUDY    33  28  81 CALM      29.78F
THEDFORD       CLOUDY    38  31  74 SW7       29.78F WCI  33
$$

NEZ041-046>049-061>064-073>077-083>087-190800-
SOUTH CENTRAL NEBRASKA

CITY           SKY/WX    TMP DP  RH WIND       PRES   REMARKS
GRAND ISLAND   CLOUDY    33  28  81 S5        29.81F WCI  29
AURORA         CLOUDY    35  26  68 SW12      29.81F WCI  27
HASTINGS       CLOUDY    36  22  56 S8        29.83F WCI  30
HEBRON         PTCLDY    35  24  64 SW5       29.88F WCI  31
HOLDREGE       CLOUDY    37  26  64 SW9       29.83F WCI  31
KEARNEY        CLOUDY    36  26  67 SW7       29.82F WCI  30
YORK           CLOUDY    32  27  80 S10       29.83F WCI  24
$$

NEZ011>018-030>034-042>045-190800-
NORTHEAST NEBRASKA

CITY           SKY/WX    TMP DP  RH WIND       PRES   REMARKS
NORFOLK        CLOUDY    33  29  85 SW8       29.77F WCI  26
ALBION         CLOUDY    39  29  69 S3        29.79F
BLAIR          CLOUDY    30  24  77 S7        29.83F WCI  23
COLUMBUS       CLOUDY    29  26  89 CALM      29.82F
FREMONT        CLOUDY    31  25  78 S7        29.83F WCI  25
TEKAMAH        CLOUDY    25  21  85 SE7       29.83F WCI  17
WAYNE          CLOUDY    31  30  96 S3        29.77F
$$

NEZ050>053-065>068-078-088>093-190800-
SOUTHEAST NEBRASKA

CITY           SKY/WX    TMP DP  RH WIND       PRES   REMARKS
LINCOLN        CLOUDY    31  23  72 S8        29.86F WCI  23
OMAHA EPPLEY   CLOUDY    27  22  81 SE10      29.86F WCI  17
BEATRICE       CLOUDY    34  26  72 S9        29.89F WCI  27
FALLS CITY     CLOUDY    35  24  64 S12       29.92F WCI  27
NEBRASKA CITY  CLOUDY    35  27  72 SW15      29.88S WCI  26
PLATTSMOUTH    CLOUDY    30  23  74 S9        29.86F WCI  22
$$

NEZ044-045-051>053-067-190800-
OMAHA AREA

CITY           SKY/WX    TMP DP  RH WIND       PRES   REMARKS
OMAHA EPPLEY   CLOUDY    27  22  81 SE10      29.86F WCI  17
BLAIR          CLOUDY    30  24  77 S7        29.83F WCI  23
FREMONT        CLOUDY    31  25  78 S7        29.83F WCI  25
MILLARD        CLOUDY    28  23  84 E3        29.86F
OFFUTT AFB     CLOUDY    21  18  87 SE5       29.86F WCI  14
PLATTSMOUTH    CLOUDY    30  23  74 S9        29.86F WCI  22
WAHOO          FAIR      30  24  79 S6        29.84F WCI  24
$$




USA.gov is the U.S. government's official web portal to all federal, state and local government web resources and services.